Overview Statistics Trail Chart Weather Telemetry Raw packets
 

This is the latest recevied weather packets stored in our database for station/object R2AKT-13. If no packets are shown the sender has not sent any weather packets the latest 10 day(s).

<< 24 25 26 27 28 29 30 >>
Time Temp. Humidity Pressure Rain* Wind** Luminosity Snow
1788379411 15° C 80% 988 hPa - 0.89 m/s, 263° - -
1788378871 15° C 79% 988 hPa - 0.89 m/s, 254° - -
1788378286 15° C 79% 988 hPa - 0.45 m/s, 245° - -
1788377746 15° C 78% 988 hPa - 0 m/s - -
1788377265 15.56° C 77% 987.9 hPa - 0.45 m/s, 262° - -
1788376701 15.56° C 77% 987.9 hPa - 1.34 m/s, 260° - -
1788376161 15.56° C 75% 987.7 hPa - 0.89 m/s, 280° - -
1788375656 15.56° C 75% 987.9 hPa - 0.89 m/s, 260° - -
1788375139 16.11° C 74% 987.9 hPa - 1.34 m/s, 255° - -
1788374646 16.11° C 73% 987.9 hPa - 1.79 m/s, 256° - -
1788374096 16.11° C 73% 987.8 hPa - 0.45 m/s, 266° - -
1788373566 16.11° C 72% 987.8 hPa - 0.89 m/s, 254° - -
1788373026 16.67° C 71% 987.8 hPa - 1.34 m/s, 262° - -
1788372476 16.67° C 70% 987.6 hPa - 0.89 m/s, 246° - -
1788371996 16.67° C 69% 987.8 hPa - 1.34 m/s, 268° - -
1788371411 17.22° C 68% 987.7 hPa - 1.34 m/s, 261° - -
1788370926 17.22° C 68% 987.6 hPa - 0.89 m/s, 256° - -
1788370371 17.22° C 67% 987.6 hPa - 1.34 m/s, 253° - -
1788369831 17.22° C 66% 987.6 hPa - 0.89 m/s, 267° - -
1788369346 17.22° C 66% 987.4 hPa - 1.34 m/s, 254° - -
1788368860 17.22° C 65% 987.5 hPa - 1.34 m/s, 234° - -
1788368321 17.78° C 65% 987.5 hPa - 1.34 m/s, 232° - -
1788367786 17.78° C 64% 987.4 hPa - 1.34 m/s, 229° - -
1788367261 17.78° C 64% 987.3 hPa - 1.34 m/s, 250° - -
1788366665 17.78° C 64% 987.3 hPa - 0.45 m/s, 224° - -

* Rain since midnight (hover to see other rain measurements)
** Current wind speed in m/s (hover to see current wind gust speed)